Theta_e
308 308 308 309 310 311 311 311 311 311 311 311 311 311 312 314 314 314 314 315 315 315 315 317 317 318 319 320 321 323 316 317 318 322 335 339 337 338 339 340 341 341 341 342 340
308 308 308 308 308 309 310 311 312 312 312 312 312 311 311 313 314 315 316 316 315 316 316 317 317 317 320 322 323 320 314 318 318 321 331 335 338 340 339 338 340 342 345 341 336
308 308 308 308 308 309 309 309 311 312 312 312 312 311 311 312 314 319 323 319 316 316 317 317 317 318 317 320 321 320 317 320 321 322 331 334 338 336 335 337 337 338 344 342 337
308 308 309 309 309 309 309 309 309 310 312 312 312 312 311 312 312 324 322 321 320 317 317 317 315 317 318 318 321 319 320 320 321 322 330 336 337 336 334 336 337 339 339 339 340
308 308 309 309 309 309 309 309 309 309 311 312 312 312 311 312 315 320 322 321 319 318 317 317 317 319 319 320 320 318 319 322 323 322 324 336 338 337 336 338 338 338 340 339 339
309 309 309 309 309 309 310 310 309 309 309 311 312 313 311 312 318 318 322 322 321 318 317 317 320 323 322 321 318 322 320 322 324 324 322 334 336 335 336 337 339 339 340 340 339
310 310 310 310 309 309 310 310 310 310 309 311 313 313 312 313 321 323 322 324 324 317 316 317 323 321 323 320 323 324 322 319 320 323 322 333 335 335 336 337 337 338 338 340 340
310 310 310 310 310 310 310 310 310 309 309 312 313 312 312 314 314 316 323 326 321 319 316 316 320 322 321 322 323 321 320 320 320 322 324 321 317 328 336 338 337 338 336 337 340
309 310 311 311 311 310 310 310 311 310 312 313 312 311 312 314 316 319 320 324 324 321 321 321 321 321 323 320 318 318 320 321 320 321 321 320 318 324 335 336 337 336 338 339 340
309 309 310 311 311 310 313 320 321 319 317 317 311 318 318 318 318 320 321 322 324 323 321 321 321 320 317 317 320 320 320 319 320 322 320 319 319 324 335 336 335 336 337 340 339
309 310 310 310 310 310 315 318 316 319 315 315 317 315 317 317 321 321 321 322 322 323 319 321 319 318 319 319 319 320 320 320 321 322 321 318 321 320 330 334 336 337 337 339 340
309 310 311 311 310 313 314 314 312 312 314 314 315 316 321 320 323 322 321 321 321 320 319 319 318 319 320 321 322 321 321 321 321 323 323 322 321 323 324 331 339 344 342 342 341
309 310 311 312 312 315 313 313 312 312 314 314 314 315 317 320 321 323 322 321 321 321 318 317 319 320 322 322 322 321 321 321 323 321 320 324 323 324 339 341 342 344 343 341 341
309 310 311 313 313 313 315 314 314 313 316 320 319 318 317 321 323 321 323 320 319 322 321 317 319 320 322 323 323 321 322 323 324 322 320 321 320 321 335 341 340 339 342 340 341
309 310 310 310 311 311 312 313 313 316 317 325 320 320 318 320 322 320 322 322 319 321 321 322 321 321 322 322 323 322 323 324 324 323 322 322 319 319 335 340 342 337 336 338 336
310 310 310 310 311 312 312 311 313 317 316 325 321 318 317 321 323 320 321 321 321 320 320 320 323 321 321 322 322 323 325 321 320 319 322 322 319 319 320 339 342 339 335 336 344
308 308 308 310 312 312 311 313 312 317 319 323 320 319 318 319 321 322 319 317 318 318 319 320 321 321 323 322 322 323 319 320 322 321 322 322 323 321 322 338 343 341 340 342 342
305 305 306 309 311 310 311 310 314 316 318 320 318 318 321 321 320 321 320 317 315 319 318 319 321 322 323 321 322 320 319 320 323 324 323 323 326 327 333 334 343 341 339 339 340
304 305 306 308 309 311 312 310 310 314 317 318 317 319 320 322 319 320 319 319 317 317 320 320 322 322 322 322 321 322 321 319 321 323 323 323 333 338 333 334 335 333 333 333 335
302 304 312 313 310 311 309 311 312 315 315 316 316 317 316 316 318 319 320 321 319 318 319 318 321 321 321 324 321 321 320 322 319 323 324 324 329 338 336 334 332 332 331 332 332
302 306 313 312 312 313 309 310 313 314 315 317 316 316 316 316 317 318 321 321 323 321 319 319 318 321 320 321 321 320 321 321 319 321 323 325 324 326 336 333 333 331 331 331 331
301 305 313 311 312 311 309 312 314 314 314 315 316 316 315 316 315 317 321 321 321 319 320 317 318 320 321 320 322 321 321 320 322 322 325 324 324 329 334 332 333 331 331 331 332
302 306 313 312 311 311 312 315 315 316 316 316 316 317 316 315 316 318 319 320 319 319 318 318 318 320 320 320 322 323 321 320 319 320 321 325 325 327 330 331 332 331 331 331 332
304 305 309 308 313 311 312 313 314 314 314 315 316 316 317 315 313 315 316 318 319 319 320 325 320 321 324 322 321 326 324 321 322 323 322 326 326 331 332 332 331 331 331 332 332
303 305 307 307 310 309 311 312 313 315 316 316 316 316 316 317 315 314 315 316 318 319 323 323 322 322 322 323 322 324 327 326 323 322 324 324 325 323 333 333 332 332 332 332 332
303 305 306 307 308 309 309 311 313 313 312 313 315 314 314 317 318 320 318 318 318 317 322 320 320 321 326 323 323 324 325 325 325 324 325 324 324 329 333 334 333 333 332 332 333
303 304 305 306 307 307 307 309 309 309 310 312 313 314 314 316 317 318 317 317 317 319 317 317 321 321 324 324 325 325 325 324 325 325 325 326 325 331 335 333 333 333 333 333 331
Wind_Speed
12 12 12 12 12 13 13 13 13 13 13 13 13 13 13 14 15 19 23 15 12 13 13 9 7 5 3 5 7 4 3 4 5 2 6 16 7 23 11 7 10 4 16 17 27
13 13 13 13 13 13 14 14 14 13 13 13 14 13 14 15 18 23 17 14 14 12 12 9 10 5 5 4 2 4 4 6 7 5 10 20 19 20 8 12 16 21 7 24 28
14 14 14 14 14 14 14 14 14 14 13 13 14 13 13 14 17 5 2 2 10 14 11 7 8 9 6 9 6 3 5 9 21 22 18 25 15 16 19 2 27 22 34 26 25
15 15 16 16 15 15 15 15 15 15 14 13 13 12 12 10 4 3 3 4 3 11 11 6 7 4 3 3 9 4 17 21 25 16 10 20 22 9 10 17 27 30 33 36 30
16 17 17 17 16 16 16 15 15 15 14 13 13 12 11 9 20 7 4 3 6 13 13 9 9 5 3 5 5 6 13 25 30 29 16 29 24 15 20 23 28 24 27 35 35
17 17 17 18 18 17 17 16 15 14 14 13 12 11 10 9 5 9 6 6 7 11 13 14 11 3 11 7 2 17 15 19 27 29 9 17 9 18 22 29 30 32 31 34 35
16 16 17 18 18 18 17 16 15 14 13 11 11 11 15 22 4 8 8 6 7 8 13 18 15 13 5 10 7 10 6 10 9 8 3 22 3 10 29 29 36 39 43 40 30
16 16 16 17 18 18 16 15 15 13 11 9 9 11 14 12 11 23 12 10 5 6 8 16 13 18 17 16 10 6 3 4 7 3 13 9 11 16 32 34 31 29 27 41 28
17 17 17 17 18 17 13 13 12 10 7 6 7 8 14 8 16 19 18 15 9 6 8 9 14 15 9 3 6 6 4 6 10 4 4 5 10 5 38 38 32 32 17 17 18
17 17 17 17 17 15 11 9 6 5 4 6 8 7 14 8 11 20 16 14 15 10 14 15 8 1 4 5 5 5 3 6 6 12 5 11 12 8 36 34 29 19 16 28 29
18 18 17 16 15 11 12 6 10 2 14 15 12 16 18 15 5 13 15 17 18 14 6 10 2 7 9 7 7 5 6 9 14 16 7 9 13 10 28 24 15 26 25 39 36
20 19 17 15 10 6 9 11 15 18 15 21 25 32 34 26 11 13 19 15 10 7 5 2 8 10 8 7 6 7 8 17 11 6 4 5 10 4 7 14 30 28 24 35 41
19 19 18 13 5 2 7 8 9 12 7 18 24 26 34 23 17 17 21 25 5 5 6 8 9 9 11 10 7 10 6 9 8 5 2 3 6 5 8 24 23 21 31 38 46
19 19 18 13 3 7 3 5 9 9 3 7 6 10 14 16 7 25 20 21 6 10 5 7 14 12 9 12 8 8 8 9 5 5 4 4 4 7 6 9 11 22 31 36 40
18 17 16 16 13 10 9 11 11 3 4 2 4 2 15 17 3 18 21 24 9 6 6 8 3 7 8 14 9 11 8 5 2 2 2 2 4 8 12 4 8 10 17 31 32
19 17 18 14 15 6 8 6 1 4 6 6 8 7 7 9 6 6 26 17 15 5 6 8 13 6 9 16 9 9 2 8 6 3 2 5 6 5 5 10 7 14 19 28 33
20 17 18 18 11 8 7 5 4 3 5 4 5 6 5 7 6 1 2 4 6 5 11 7 11 6 10 8 5 4 6 3 5 4 7 4 3 8 3 19 20 21 24 24 32
22 19 18 18 12 11 5 4 3 5 6 6 9 10 8 5 10 7 7 6 6 4 3 7 12 11 8 8 10 8 10 6 6 3 7 4 3 6 9 23 37 33 34 34 34
19 18 18 9 11 12 8 3 7 6 3 6 8 5 6 6 10 10 11 12 11 11 10 5 7 7 6 4 8 4 3 9 6 1 2 3 1 5 7 14 25 26 28 31 33
20 18 4 4 14 17 4 5 5 4 9 5 1 3 6 8 7 8 3 5 8 14 15 8 10 13 16 4 6 6 6 3 3 4 5 5 3 5 7 14 15 19 24 31 31
13 9 2 9 19 8 3 6 3 18 13 7 5 7 4 7 2 3 5 10 1 6 9 15 6 16 5 6 10 5 1 5 5 5 7 4 6 7 16 20 23 28 34 36 36
5 2 7 20 5 3 3 3 3 7 21 9 5 6 6 4 6 4 7 5 13 8 4 9 7 12 19 13 7 7 8 8 6 6 3 4 7 3 15 18 27 25 28 36 40
2 6 12 9 3 2 5 6 11 12 9 4 5 8 11 6 4 5 2 2 20 1 5 6 2 6 9 8 2 6 7 8 4 3 8 6 7 3 10 5 15 33 35 41 40
1 2 5 9 11 5 2 5 4 10 14 9 6 8 5 8 7 8 11 6 15 17 13 10 6 9 16 15 6 5 5 9 8 5 6 8 7 5 6 13 28 32 42 46 39
3 4 4 3 1 4 1 4 9 6 3 6 4 5 5 5 7 6 7 15 12 9 3 1 5 5 18 19 16 12 8 6 5 7 8 9 10 10 12 16 35 44 42 45 37
2 4 7 6 8 1 2 3 4 4 2 8 2 9 4 4 5 9 9 5 5 7 1 1 4 7 13 15 18 13 11 10 5 5 6 5 7 4 13 22 26 37 39 39 37
2 5 3 5 3 1 3 3 8 13 9 8 4 3 7 5 21 26 30 26 22 14 11 2 1 4 6 12 7 7 19 10 5 6 7 7 8 9 8 19 30 33 37 39 32
Wind_Direction
354 350 347 341 337 334 331 327 325 323 319 315 309 305 300 295 288 281 269 271 261 235 239 245 275 281 293 257 245 218 67 277 256 230 173 165 147 156 148 138 155 170 274 217 161
350 346 343 339 335 331 327 323 320 317 315 312 309 307 302 299 296 282 295 272 255 222 228 250 255 266 273 237 236 142 122 241 214 284 165 186 157 162 173 197 71 70 68 164 155
345 343 340 336 332 329 324 320 317 313 312 309 307 307 302 304 311 313 8 293 231 221 230 249 270 292 266 260 240 219 189 248 270 266 164 175 176 171 148 40 150 172 159 180 177
341 339 337 334 330 326 323 319 316 312 308 305 304 303 299 295 280 123 60 5 213 209 215 234 261 226 237 211 251 237 256 255 276 286 170 160 161 172 186 193 170 168 172 166 187
338 336 333 330 327 323 320 318 315 310 304 300 300 297 292 270 257 254 19 319 213 210 224 220 239 221 245 233 308 193 274 288 290 292 245 164 181 187 203 178 184 195 189 178 184
338 336 332 328 325 321 317 315 312 308 300 295 294 288 274 263 290 211 235 287 267 226 221 219 216 189 283 283 141 275 278 286 304 298 167 155 176 168 186 184 190 196 208 198 190
339 338 334 329 324 319 316 315 309 305 296 288 285 275 265 251 242 211 223 250 306 251 225 206 225 256 299 312 321 293 335 326 281 277 99 117 89 236 180 182 195 210 212 195 185
340 338 336 333 328 321 318 314 306 300 291 280 275 273 261 276 248 241 223 225 213 254 224 205 239 268 271 270 319 343 41 331 282 303 283 146 251 233 183 188 201 208 209 194 190
340 339 338 338 332 325 327 316 309 296 286 272 268 269 268 256 230 212 224 222 198 258 232 245 270 270 280 73 0 357 262 307 314 326 268 153 260 152 184 192 204 211 214 188 184
340 339 339 342 338 333 356 346 352 302 295 280 237 290 255 304 238 204 213 224 220 237 246 253 254 73 16 81 223 253 335 298 274 287 221 242 238 147 185 192 206 192 189 182 180
336 338 340 344 343 343 25 47 10 1 314 269 265 238 266 287 266 222 211 211 224 225 195 258 103 231 240 221 213 244 257 277 288 283 272 232 218 228 196 202 169 186 194 189 178
329 332 336 345 347 358 25 42 15 335 297 275 260 258 259 268 301 244 212 209 208 195 168 323 240 231 232 244 251 264 270 279 279 256 5 1 267 264 125 186 166 158 158 169 171
323 325 329 345 343 14 35 33 354 330 286 284 250 243 240 243 230 251 207 207 185 167 192 194 236 209 235 262 255 259 222 258 245 326 334 55 336 310 52 109 124 141 162 173 176
321 321 326 332 312 308 211 329 315 330 355 275 222 249 208 197 264 239 235 199 212 201 200 225 243 246 247 249 236 267 229 254 334 40 287 79 270 310 91 84 121 153 167 163 171
316 318 316 316 310 326 295 294 312 357 340 272 187 244 189 172 202 218 211 203 196 185 156 236 220 225 243 246 252 250 266 252 317 96 34 53 99 266 131 127 159 165 172 171 168
311 312 304 298 297 305 316 327 14 50 259 310 162 170 124 204 253 22 196 211 225 198 239 227 262 217 238 253 231 260 214 31 37 54 340 250 142 277 188 174 171 170 169 160 158
304 303 295 286 280 268 322 342 52 159 319 345 358 340 182 167 237 213 173 184 180 184 241 295 278 275 268 285 291 177 64 345 339 348 246 8 13 237 227 169 171 165 163 165 160
306 300 285 273 268 257 260 53 164 246 277 330 340 312 193 161 216 214 186 225 230 150 148 210 273 261 241 194 231 203 155 157 213 224 271 334 265 281 305 174 158 157 163 165 164
311 305 295 289 229 214 163 120 206 220 281 8 341 356 345 11 346 191 194 207 211 182 204 186 253 263 252 251 153 225 150 188 150 46 359 234 141 34 64 104 133 144 155 163 167
323 322 344 282 181 170 104 215 239 298 17 349 323 307 358 351 332 28 294 229 210 191 185 227 260 260 268 343 285 193 176 92 11 209 260 274 215 200 169 148 152 160 165 166 166
325 326 324 179 155 155 170 222 283 295 349 341 347 321 332 320 264 313 264 320 60 1 232 210 165 255 310 181 239 312 280 63 128 142 194 262 262 215 181 175 172 174 170 164 165
296 331 131 154 149 199 179 202 288 280 302 298 284 266 250 326 291 292 230 183 313 353 269 222 198 234 242 233 187 184 233 181 150 227 204 190 267 233 177 179 175 161 148 154 165
303 276 196 213 199 258 286 282 280 276 275 293 308 313 293 270 291 227 259 298 306 27 30 325 291 251 288 299 137 188 199 203 122 87 199 196 261 82 157 144 143 139 146 158 161
273 333 276 236 238 165 275 281 273 267 257 261 287 311 311 272 216 271 295 300 309 293 319 307 217 202 232 222 172 203 222 206 168 139 193 222 230 236 164 149 145 153 157 163 167
225 243 14 310 47 346 45 304 302 306 280 329 303 53 58 316 310 294 307 322 310 282 85 92 261 263 236 224 230 225 218 184 222 208 166 221 200 218 187 166 163 161 160 162 171
272 340 344 302 298 25 229 210 256 291 299 295 67 332 48 199 234 309 334 6 274 311 236 227 269 345 277 214 220 227 213 214 198 189 243 223 238 224 148 141 151 159 160 165 180
327 294 295 279 304 97 211 350 336 323 289 357 42 7 330 326 316 294 279 263 251 267 277 252 246 30 280 307 191 244 233 212 209 197 177 201 205 147 140 161 163 164 168 177 187